Weather History for PAKF - August, 2013

Change the Weather History Date:

Sunday, August 25, 2013

  Actual Average (PACD) Record (PACD)
Temperature  
Mean Temperature 60 °F 52 °F  
Max Temperature 50 °F 56 °F 68 °F (1990)
Min Temperature 51 °F 47 °F 36 °F (2002)
Degree Days  
Heating Degree Days 5 13  
Month to date heating degree days 325  
Since 1 June heating degree days 1325  
Since 1 July heating degree days 763  
Cooling Degree Days 0    
Month to date cooling degree days  
Year to date cooling degree days  
Since 1 June cooling degree days  
Growing Degree Days 10 (Base 50)    
Moisture  
Dew Point 52 °F    
Average Humidity 86    
Maximum Humidity 100    
Minimum Humidity 49    
Precipitation  
Precipitation 0.07 in 0.13 in 0.57 in (1981)
Month to date precipitation 2.87  
Year to date precipitation 21.93  
Snow  
Snow 0.00 in 0.00 in T in (1998)
Month to date snowfall 0.0  
Since 1 June snowfall 0.0  
Since 1 July snowfall 0.0  
Snow Depth -    
Sea Level Pressure  
Sea Level Pressure 30.03 in    
Wind  
Wind Speed 4 mph (NE)    
Max Wind Speed 14 mph    
Max Gust Speed 17 mph    
Visibility 7 miles    
Events Fog , Rain    
T = Trace of Precipitation, MM = Missing Value Source: NWS Daily Summary

Daily Weather History Graph

Daily Weather History Graph

Search for Another Location

Airport or City:

Trip Planner

Search our weather history database for the weather conditions in past years. The results will help you decide how hot, cold, wet, or windy it might be!

Date:

Astronomy

Aug. 25, 2013 Rise Set
Actual Time 6:48 AM HADT 9:01 PM HADT
Civil Twilight 6:08 AM HADT 9:40 PM HADT
Nautical Twilight 5:18 AM HADT 10:30 PM HADT
Astronomical Twilight 4:18 AM HADT 11:29 PM HADT
Moon 10:37 PM HADT (8/25) 1:03 PM HADT (8/25)
Length of Visible Light 15h 31m
Length of Day
14h 13m
Waning Gibbous, 74% of the Moon is Illuminated
Aug 25
Waning Gibbous
Aug 28
Last Quarter
Sep 5
New
Sep 12
First Quarter
Sep 19
Full

Hourly Weather History & Observations

Time (HADT) Temp. Dew Point Humidity Pressure Visibility Wind Dir Wind Speed Gust Speed Precip Events Conditions
12:01 AM 54.0 °F 54.0 °F 100% 30.18 in 10.0 mi ESE 4.6 mph - N/A   Overcast
1:01 AM 53.6 °F 53.6 °F 100% 29.88 in 2.5 mi SE 4.6 mph - N/A   Overcast
1:08 AM 53.6 °F 53.6 °F 100% 29.88 in 6.0 mi North - - N/A   Overcast
1:20 AM 55.4 °F 53.6 °F 94% 29.88 in 1.5 mi Calm Calm - N/A   Overcast
1:30 AM 55.4 °F 53.6 °F 94% 29.87 in 3.0 mi North - - N/A   Overcast
1:38 AM 53.6 °F 53.6 °F 100% 29.87 in 0.8 mi Calm Calm - N/A   Overcast
1:49 AM 53.6 °F 53.6 °F 100% 29.87 in 4.0 mi North - - N/A   Overcast
1:56 AM 55.4 °F 53.6 °F 94% 29.87 in 1.5 mi ESE 4.6 mph - 0.00 in Rain Light Rain
2:01 AM 53.6 °F 53.6 °F 100% 29.87 in 1.0 mi Calm Calm - 0.00 in Rain Light Rain
2:08 AM 53.6 °F 53.6 °F 100% 29.87 in 0.8 mi Calm Calm - 0.00 in   Overcast
2:18 AM 53.6 °F 53.6 °F 100% 29.87 in 0.5 mi Calm Calm - 0.00 in Fog Fog
2:25 AM 53.6 °F 53.6 °F 100% 29.86 in 1.0 mi East 3.5 mph - 0.00 in   Overcast
2:34 AM 53.6 °F 53.6 °F 100% 29.87 in 0.5 mi Calm Calm - 0.00 in Fog Fog
2:41 AM 53.6 °F 53.6 °F 100% 29.86 in 1.2 mi North - - 0.00 in Rain Light Rain
2:51 AM 54.0 °F 54.0 °F 100% 30.14 in 1.8 mi Variable 3.5 mph - 0.01 in Rain Light Rain
2:57 AM 53.6 °F 53.6 °F 100% 29.85 in 3.0 mi North - - 0.01 in Rain Rain
3:01 AM 54.0 °F 54.0 °F 100% 30.13 in 5.0 mi Calm Calm - 0.02 in Rain Rain
3:13 AM 53.6 °F 53.6 °F 100% 29.85 in 4.0 mi Calm Calm - 0.02 in Rain Light Rain
3:31 AM 55.4 °F 53.6 °F 94% 29.85 in 10.0 mi Calm Calm - 0.02 in Rain Light Rain
4:01 AM 55.0 °F 55.0 °F 100% 30.11 in 10.0 mi West 3.5 mph - 0.03 in Rain Light Rain
4:27 AM 53.6 °F 53.6 °F 100% 29.84 in 10.0 mi ENE 4.6 mph - 0.00 in   Mostly Cloudy
5:01 AM 57.0 °F 55.9 °F 96% 30.11 in 10.0 mi Variable 5.8 mph - 0.00 in   Overcast
6:01 AM 55.9 °F 54.0 °F 93% 30.09 in 10.0 mi Variable 4.6 mph - N/A   Clear
7:01 AM 63.0 °F 51.1 °F 65% 30.10 in 10.0 mi WSW 10.4 mph 17.3 mph 0.01 in   Clear
8:01 AM 63.0 °F 52.0 °F 67% 30.12 in 10.0 mi North - - N/A   Clear
9:01 AM 64.9 °F 51.1 °F 61% 30.12 in 10.0 mi North - - N/A   Clear
10:01 AM 64.9 °F 51.1 °F 61% 30.13 in 10.0 mi North - - N/A   Clear
11:01 AM 64.9 °F 51.1 °F 61% 30.14 in 10.0 mi North - - N/A   Clear
12:01 PM 66.0 °F 51.1 °F 59% 30.15 in 10.0 mi North - - N/A   Clear
1:01 PM 68.0 °F 52.0 °F 56% 30.16 in 10.0 mi North - - N/A   Clear
2:01 PM 69.1 °F 51.1 °F 53% 30.16 in 10.0 mi North - - N/A   Clear
3:01 PM 69.1 °F 48.9 °F 49% 30.16 in 10.0 mi North - - N/A   Clear
4:01 PM 68.0 °F 52.0 °F 56% 30.16 in 10.0 mi North - - N/A   Clear
5:01 PM 62.1 °F 52.0 °F 70% 30.17 in 10.0 mi North - - N/A   Clear
6:01 PM 63.0 °F 51.1 °F 65% 30.17 in 9.0 mi North 10.4 mph - N/A   Clear
7:01 PM 57.9 °F 52.0 °F 81% 30.18 in 10.0 mi NNE 11.5 mph - N/A   Clear
8:01 PM 53.1 °F 50.0 °F 89% 30.19 in 10.0 mi North 13.8 mph - N/A   Mostly Cloudy
9:01 PM 52.0 °F 48.9 °F 89% 30.20 in 10.0 mi North 3.5 mph - N/A   Overcast
9:47 PM 51.8 °F 48.2 °F 88% 29.94 in 10.0 mi North 12.7 mph 17.3 mph N/A   Overcast
10:01 PM 51.1 °F 48.9 °F 92% 30.22 in 10.0 mi North - - N/A   Overcast
10:37 PM 51.8 °F 48.2 °F 88% 29.92 in 10.0 mi SSE 4.6 mph - N/A   Overcast
11:01 PM 51.1 °F 48.9 °F 92% 30.20 in 10.0 mi North 6.9 mph - N/A   Overcast